contact:dominique.lefevre@mio.osupytheas.fr, maurice.libes@osupytheas.fr, didier.mallarino@osupytheas.fr
Project:EMSO http://www.emso-fr.org/EMSO-France
Depth: 2436.0 m
Title:EMSO Ligure Ouest : Data MII capteur AQUADOPP
Date,Latitude,Longitude,X_East,Y_North,Z_Up,Amplitude_X,Amplitude_Y,Amplitude_Z,Batterie,SoundSpeed,Heading,Pitch,Roll,Pressure,TIS,Speed,Direction
, degrees North, degrees East, m.s-1, m.s-1,m.s-1, 1, 1, 1, Volt, m.s-1, degree, degree, degree, dbar, degree_C, m.s-1, degree
2022-06-12T00:04:03,42.805,6.029,0.047,-0.021,-0.035,103.0,103.0,100.0,13.4,1505.2,321.6,-0.8,1.8,2470.85,13.28,0.051,114.1
2022-06-12T00:07:03,42.805,6.029,0.06,-0.049,-0.037,101.0,101.0,101.0,13.4,1505.2,327.8,-0.8,1.9,2470.778,13.28,0.077,129.2
2022-06-12T00:10:03,42.805,6.029,0.039,-0.039,-0.027,103.0,101.0,100.0,13.3,1505.2,327.3,-0.7,1.8,2470.797,13.28,0.055,135.0
2022-06-12T00:13:03,42.805,6.029,0.035,-0.021,-0.049,102.0,101.0,100.0,13.3,1505.2,328.9,-0.7,1.8,2470.8,13.28,0.04,121.0
2022-06-12T00:16:03,42.805,6.029,0.03,-0.015,-0.016,102.0,102.0,100.0,13.3,1505.2,326.4,-0.7,1.8,2470.812,13.28,0.033,116.6
2022-06-12T00:19:03,42.805,6.029,0.052,-0.026,-0.022,103.0,103.0,100.0,13.4,1505.2,325.1,-0.8,1.8,2470.809,13.28,0.058,116.6
2022-06-12T00:22:03,42.805,6.029,0.036,-0.028,-0.047,103.0,102.0,101.0,13.3,1505.2,328.6,-0.8,1.8,2470.799,13.28,0.045,127.9
2022-06-12T00:25:03,42.805,6.029,0.04,-0.023,-0.024,103.0,102.0,101.0,13.4,1505.2,321.8,-0.8,1.8,2470.815,13.28,0.046,119.9
2022-06-12T00:28:03,42.805,6.029,0.024,-0.038,-0.055,103.0,103.0,100.0,13.3,1505.2,324.9,-0.8,1.8,2470.782,13.28,0.044,147.7
2022-06-12T00:31:03,42.805,6.029,0.04,-0.047,-0.082,102.0,102.0,100.0,13.4,1505.2,330.0,-0.7,1.8,2470.828,13.28,0.061,139.6
2022-06-12T00:34:03,42.805,6.029,0.065,-0.028,-0.027,102.0,102.0,101.0,13.4,1505.2,320.7,-0.7,1.8,2470.812,13.28,0.07,113.3
2022-06-12T00:37:03,42.805,6.029,0.03,-0.024,-0.029,103.0,102.0,101.0,13.3,1505.2,322.8,-0.7,1.8,2470.795,13.28,0.038,128.7
2022-06-12T00:40:03,42.805,6.029,0.046,-0.031,-0.032,102.0,103.0,101.0,13.4,1505.2,331.8,-0.7,1.8,2470.803,13.28,0.055,124.0
2022-06-12T00:43:03,42.805,6.029,0.058,-0.017,-0.025,104.0,103.0,100.0,13.4,1505.2,326.1,-0.7,1.8,2470.767,13.28,0.06,106.3
2022-06-12T00:46:03,42.805,6.029,0.04,-0.02,-0.027,103.0,102.0,101.0,13.4,1505.2,322.3,-0.8,1.8,2470.785,13.28,0.044,116.6
2022-06-12T00:49:03,42.805,6.029,0.034,-0.023,-0.043,103.0,102.0,100.0,13.3,1505.2,320.4,-0.8,1.8,2470.787,13.28,0.041,124.1
2022-06-12T00:52:03,42.805,6.029,0.026,-0.013,-0.041,102.0,103.0,101.0,13.4,1505.2,327.1,-0.8,1.8,2470.788,13.28,0.029,116.6
2022-06-12T00:55:03,42.805,6.029,0.045,-0.027,-0.048,101.0,101.0,101.0,13.3,1505.2,330.0,-0.7,1.8,2470.805,13.28,0.052,121.0
2022-06-12T00:58:03,42.805,6.029,0.045,-0.024,-0.031,101.0,101.0,101.0,13.4,1505.2,328.3,-0.8,1.8,2470.787,13.28,0.051,118.1
2022-06-12T01:04:03,42.805,6.029,0.052,-0.022,-0.009,103.0,103.0,102.0,13.4,1505.2,326.3,-0.7,1.8,2470.834,13.28,0.056,112.9
2022-06-12T01:07:03,42.805,6.029,0.058,-0.031,-0.057,103.0,103.0,101.0,13.3,1505.2,321.2,-0.8,1.8,2470.822,13.28,0.065,118.1
2022-06-12T01:10:03,42.805,6.029,0.054,-0.018,-0.038,103.0,102.0,100.0,13.4,1505.2,325.0,-0.7,1.8,2470.813,13.28,0.056,108.4
2022-06-12T01:13:03,42.805,6.029,0.029,-0.007,-0.003,102.0,103.0,100.0,13.4,1505.2,325.3,-0.8,1.8,2470.859,13.28,0.029,103.6
2022-06-12T01:16:03,42.805,6.029,0.045,-0.007,-0.023,103.0,102.0,100.0,13.4,1505.2,323.3,-0.7,1.8,2470.816,13.28,0.045,98.8
2022-06-12T01:19:03,42.805,6.029,0.027,-0.018,-0.011,104.0,104.0,100.0,13.3,1505.2,329.9,-0.8,1.8,2470.85,13.28,0.032,123.7
2022-06-12T01:22:03,42.805,6.029,0.064,-0.028,-0.015,106.0,102.0,100.0,13.4,1505.2,323.6,-0.7,1.8,2470.824,13.28,0.069,113.6
2022-06-12T01:25:03,42.805,6.029,0.056,-0.017,-0.025,103.0,102.0,101.0,13.4,1505.2,322.0,-0.7,1.8,2470.813,13.28,0.058,106.9
2022-06-12T01:28:03,42.805,6.029,0.009,-0.015,-0.003,103.0,101.0,101.0,13.3,1505.2,331.1,-0.8,1.8,2470.767,13.28,0.017,149.0
2022-06-12T01:31:03,42.805,6.029,0.03,-0.03,-0.052,103.0,101.0,100.0,13.4,1505.2,326.3,-0.7,1.8,2470.829,13.28,0.042,135.0
2022-06-12T01:34:03,42.805,6.029,0.041,-0.04,-0.046,100.0,103.0,101.0,13.3,1505.2,330.3,-0.8,1.8,2470.828,13.28,0.057,134.3
2022-06-12T01:37:03,42.805,6.029,0.031,-0.024,-0.056,103.0,103.0,100.0,13.4,1505.2,324.0,-0.7,1.8,2470.822,13.28,0.039,127.7
2022-06-12T01:40:03,42.805,6.029,0.057,-0.022,-0.012,102.0,102.0,99.0,13.3,1505.2,330.7,-0.8,1.8,2470.85,13.28,0.061,111.1
2022-06-12T01:43:03,42.805,6.029,0.056,-0.01,-0.012,103.0,103.0,99.0,13.4,1505.2,321.9,-0.8,1.8,2470.824,13.28,0.056,100.1
2022-06-12T01:46:03,42.805,6.029,0.066,-0.031,-0.003,101.0,104.0,101.0,13.4,1505.2,325.9,-0.8,1.8,2470.841,13.28,0.072,115.2
2022-06-12T01:49:03,42.805,6.029,0.053,-0.033,-0.042,104.0,102.0,100.0,13.3,1505.2,329.8,-0.8,1.8,2470.814,13.28,0.062,121.9
2022-06-12T01:52:03,42.805,6.029,0.041,-0.039,0.038,104.0,102.0,99.0,13.4,1505.2,331.4,-0.8,1.8,2470.849,13.28,0.056,133.6
2022-06-12T01:55:03,42.805,6.029,0.045,-0.032,-0.046,102.0,102.0,100.0,13.3,1505.2,331.6,-0.7,1.8,2470.791,13.28,0.055,125.4
2022-06-12T01:58:03,42.805,6.029,0.048,-0.014,0.002,102.0,103.0,100.0,13.4,1505.2,325.0,-0.7,1.9,2470.85,13.28,0.05,106.3
2022-06-12T02:04:03,42.805,6.029,0.037,-0.019,-0.023,103.0,102.0,101.0,13.4,1505.2,320.7,-0.8,1.8,2470.901,13.28,0.041,117.2
2022-06-12T02:07:03,42.805,6.029,0.028,-0.016,-0.028,102.0,103.0,100.0,13.4,1505.2,329.0,-0.8,1.8,2470.881,13.28,0.032,119.7
2022-06-12T02:10:03,42.805,6.029,0.054,0.013,-0.03,103.0,102.0,101.0,13.4,1505.2,324.5,-0.8,1.8,2470.883,13.28,0.055,76.5
2022-06-12T02:13:03,42.805,6.029,0.04,-0.026,-0.028,103.0,102.0,101.0,13.3,1505.2,331.0,-0.7,1.8,2470.838,13.28,0.047,123.0
2022-06-12T02:16:03,42.805,6.029,0.044,-0.036,-0.008,104.0,101.0,99.0,13.4,1505.2,322.9,-0.8,1.8,2470.847,13.28,0.056,129.3
2022-06-12T02:19:03,42.805,6.029,0.041,-0.039,-0.04,103.0,100.0,101.0,13.4,1505.2,321.1,-0.7,1.8,2470.845,13.28,0.056,133.6
2022-06-12T02:22:03,42.805,6.029,0.059,-0.006,0.009,102.0,101.0,100.0,13.3,1505.2,322.1,-0.8,1.9,2470.861,13.28,0.059,95.8
2022-06-12T02:25:03,42.805,6.029,0.037,-0.034,-0.031,102.0,101.0,99.0,13.4,1505.2,329.7,-0.7,1.8,2470.888,13.28,0.05,132.6
2022-06-12T02:28:03,42.805,6.029,0.033,-0.031,-0.062,102.0,102.0,100.0,13.4,1505.2,333.2,-0.8,1.8,2470.853,13.28,0.045,133.2
2022-06-12T02:31:03,42.805,6.029,0.029,-0.033,-0.012,102.0,103.0,101.0,13.3,1505.2,326.0,-0.8,1.8,2470.856,13.28,0.043,138.7
2022-06-12T02:34:03,42.805,6.029,0.063,-0.037,-0.009,104.0,102.0,100.0,13.3,1505.2,324.1,-0.7,1.8,2470.872,13.28,0.073,120.4
2022-06-12T02:37:03,42.805,6.029,0.032,-0.018,-0.029,103.0,102.0,101.0,13.3,1505.2,329.1,-0.8,1.8,2470.854,13.28,0.036,119.4
2022-06-12T02:40:03,42.805,6.029,0.044,-0.036,-0.007,101.0,102.0,101.0,13.3,1505.2,330.9,-0.8,1.8,2470.903,13.28,0.056,129.3
2022-06-12T02:43:03,42.805,6.029,0.068,-0.059,-0.021,103.0,101.0,101.0,13.4,1505.2,330.6,-0.7,1.8,2470.884,13.28,0.09,130.9
2022-06-12T02:46:03,42.805,6.029,0.066,-0.035,0.002,102.0,102.0,100.0,13.4,1505.2,321.4,-0.7,1.8,2470.882,13.28,0.074,117.9
2022-06-12T02:49:03,42.805,6.029,0.052,-0.014,-0.013,102.0,102.0,102.0,13.4,1505.2,325.3,-0.7,1.8,2470.865,13.28,0.053,105.1
2022-06-12T02:52:03,42.805,6.029,0.042,-0.037,-0.005,103.0,103.0,100.0,13.4,1505.2,331.7,-0.7,1.8,2470.879,13.28,0.055,131.4
2022-06-12T02:55:03,42.805,6.029,0.063,-0.038,-0.03,103.0,102.0,101.0,13.4,1505.2,323.1,-0.8,1.8,2470.881,13.28,0.073,121.1
2022-06-12T02:58:03,42.805,6.029,0.034,-0.023,0.003,104.0,104.0,99.0,13.4,1505.2,332.3,-0.7,1.8,2470.858,13.28,0.041,124.1
2022-06-12T03:04:03,42.805,6.029,0.038,-0.031,-0.011,104.0,101.0,101.0,13.4,1505.2,332.9,-0.7,1.8,2470.925,13.28,0.049,129.2
2022-06-12T03:07:03,42.805,6.029,0.072,-0.017,-0.011,102.0,103.0,100.0,13.4,1505.2,323.1,-0.8,1.8,2470.932,13.28,0.073,103.3
2022-06-12T03:10:03,42.805,6.029,0.043,-0.025,-0.019,103.0,103.0,101.0,13.3,1505.2,328.0,-0.8,1.8,2470.968,13.28,0.049,120.2
2022-06-12T03:13:03,42.805,6.029,0.037,-0.003,-0.005,102.0,103.0,101.0,13.4,1505.2,326.5,-0.7,1.8,2470.914,13.28,0.037,94.6
2022-06-12T03:16:03,42.805,6.029,0.046,-0.019,-0.01,104.0,102.0,101.0,13.3,1505.2,321.4,-0.8,1.8,2470.912,13.28,0.049,112.4
2022-06-12T03:19:03,42.805,6.029,0.044,-0.024,-0.022,102.0,102.0,100.0,13.3,1505.2,326.4,-0.8,1.8,2470.917,13.28,0.05,118.6
2022-06-12T03:22:03,42.805,6.029,0.047,-0.032,0.004,104.0,101.0,101.0,13.4,1505.2,326.3,-0.7,1.8,2470.908,13.28,0.056,124.2
2022-06-12T03:25:03,42.805,6.029,0.047,-0.038,-0.034,101.0,103.0,101.0,13.4,1505.2,328.2,-0.8,1.8,2470.934,13.28,0.06,129.0
2022-06-12T03:28:03,42.805,6.029,0.037,-0.009,-0.014,103.0,102.0,101.0,13.4,1505.2,323.7,-0.7,1.8,2470.91,13.28,0.038,103.7
2022-06-12T03:31:03,42.805,6.029,0.008,-0.035,-0.041,103.0,102.0,100.0,13.4,1505.2,333.2,-0.8,1.8,2470.911,13.28,0.035,167.1
2022-06-12T03:34:03,42.805,6.029,0.066,-0.042,-0.032,104.0,101.0,100.0,13.4,1505.2,327.9,-0.7,1.8,2470.866,13.28,0.078,122.5
2022-06-12T03:37:03,42.805,6.029,0.039,0.001,-0.001,103.0,104.0,100.0,13.4,1505.2,332.3,-0.8,1.8,2470.898,13.28,0.039,88.5
2022-06-12T03:40:03,42.805,6.029,0.046,-0.022,-0.031,103.0,102.0,100.0,13.4,1505.2,327.8,-0.8,1.8,2470.911,13.28,0.05,115.6
2022-06-12T03:43:03,42.805,6.029,0.028,-0.019,-0.043,102.0,102.0,100.0,13.4,1505.2,323.5,-0.8,1.8,2470.899,13.28,0.033,124.2
2022-06-12T03:46:03,42.805,6.029,0.054,-0.033,-0.032,104.0,102.0,100.0,13.4,1505.2,322.0,-0.8,1.8,2470.952,13.28,0.063,121.4
2022-06-12T03:49:03,42.805,6.029,0.058,0.004,-0.007,102.0,102.0,101.0,13.4,1505.2,321.3,-0.8,1.8,2470.872,13.28,0.058,86.1
2022-06-12T03:52:03,42.805,6.029,0.054,-0.031,0.001,104.0,102.0,100.0,13.4,1505.2,329.8,-0.7,1.8,2470.907,13.28,0.062,119.9
2022-06-12T03:55:03,42.805,6.029,0.047,-0.012,-0.014,102.0,103.0,100.0,13.3,1505.2,324.4,-0.7,1.8,2470.902,13.28,0.048,104.3
2022-06-12T03:58:03,42.805,6.029,0.03,-0.035,-0.005,102.0,102.0,101.0,13.4,1505.2,325.4,-0.8,1.8,2470.914,13.28,0.046,139.4
2022-06-12T04:04:03,42.805,6.029,0.058,-0.037,-0.03,102.0,102.0,100.0,13.4,1505.2,329.4,-0.8,1.8,2470.954,13.28,0.068,122.5
2022-06-12T04:07:03,42.805,6.029,0.06,-0.031,-0.01,100.0,103.0,99.0,13.4,1505.2,325.2,-0.8,1.8,2470.984,13.28,0.067,117.3
2022-06-12T04:10:03,42.805,6.029,0.056,-0.029,-0.019,103.0,104.0,100.0,13.4,1505.2,321.6,-0.7,1.8,2471.033,13.28,0.063,117.4
2022-06-12T04:13:03,42.805,6.029,0.025,-0.011,-0.015,103.0,102.0,100.0,13.4,1505.2,327.8,-0.8,1.8,2470.943,13.28,0.027,113.7
2022-06-12T04:16:03,42.805,6.029,0.037,-0.013,-0.015,103.0,102.0,100.0,13.4,1505.2,324.9,-0.8,1.8,2470.942,13.28,0.039,109.4
2022-06-12T04:19:03,42.805,6.029,0.027,-0.034,-0.032,103.0,102.0,100.0,13.4,1505.2,331.5,-0.7,1.8,2470.928,13.28,0.043,141.5
2022-06-12T04:22:03,42.805,6.029,0.03,-0.01,-0.003,103.0,102.0,101.0,13.4,1505.2,322.3,-0.8,1.8,2470.94,13.28,0.031,108.4
2022-06-12T04:25:03,42.805,6.029,0.017,-0.036,-0.044,103.0,102.0,100.0,13.4,1505.2,333.6,-0.7,1.9,2470.898,13.28,0.039,154.7
2022-06-12T04:28:03,42.805,6.029,0.051,-0.023,-0.016,103.0,102.0,100.0,13.4,1505.2,324.6,-0.7,1.8,2470.956,13.28,0.055,114.3
2022-06-12T04:31:03,42.805,6.029,0.048,-0.03,-0.012,104.0,102.0,100.0,13.4,1505.2,325.7,-0.7,1.8,2470.922,13.28,0.056,122.0
2022-06-12T04:34:03,42.805,6.029,0.03,-0.033,-0.035,103.0,104.0,100.0,13.4,1505.2,331.6,-0.7,1.8,2470.914,13.28,0.044,137.7
2022-06-12T04:37:03,42.805,6.029,0.043,-0.052,-0.04,102.0,102.0,100.0,13.3,1505.2,330.0,-0.8,1.8,2470.915,13.28,0.067,140.4
2022-06-12T04:40:03,42.805,6.029,0.047,-0.028,0.014,103.0,101.0,100.0,13.4,1505.2,321.8,-0.7,1.8,2470.892,13.28,0.054,120.8
2022-06-12T04:43:03,42.805,6.029,0.061,-0.032,-0.042,102.0,102.0,100.0,13.3,1505.2,320.3,-0.8,1.8,2470.897,13.28,0.068,117.7
2022-06-12T04:46:03,42.805,6.029,0.044,-0.035,-0.033,104.0,102.0,99.0,13.4,1505.2,331.5,-0.8,1.8,2470.995,13.28,0.056,128.5
2022-06-12T04:49:03,42.805,6.029,0.045,-0.02,0.01,103.0,102.0,101.0,13.4,1505.2,326.0,-0.8,1.8,2470.951,13.28,0.049,114.0
2022-06-12T04:52:03,42.805,6.029,0.021,-0.015,-0.038,102.0,102.0,100.0,13.4,1505.2,330.0,-0.8,1.8,2470.945,13.28,0.025,125.5
2022-06-12T04:55:03,42.805,6.029,0.031,-0.02,-0.003,103.0,102.0,101.0,13.3,1505.2,328.3,-0.8,1.8,2470.915,13.28,0.036,122.8
2022-06-12T04:58:03,42.805,6.029,0.047,-0.011,-0.014,103.0,101.0,100.0,13.3,1505.2,320.9,-0.8,1.8,2470.937,13.28,0.048,103.2
2022-06-12T05:01:03,42.805,6.029,0.042,-0.037,-0.014,103.0,102.0,100.0,13.3,1505.2,332.9,-0.8,1.8,2470.93,13.28,0.055,131.4
2022-06-12T05:04:03,42.805,6.029,0.048,-0.036,-0.025,103.0,102.0,101.0,13.4,1505.2,323.8,-0.8,1.8,2470.941,13.28,0.06,126.9
2022-06-12T05:07:03,42.805,6.029,0.039,-0.023,-0.039,103.0,103.0,100.0,13.4,1505.2,326.3,-0.8,1.8,2470.926,13.28,0.045,120.5
2022-06-12T05:10:03,42.805,6.029,0.035,-0.011,-0.042,104.0,101.0,101.0,13.4,1505.2,320.9,-0.8,1.8,2470.904,13.28,0.036,107.4
2022-06-12T05:13:03,42.805,6.029,0.058,-0.006,-0.008,102.0,102.0,101.0,13.4,1505.2,328.5,-0.7,1.8,2470.935,13.28,0.058,95.9
2022-06-12T05:16:03,42.805,6.029,0.038,-0.032,-0.041,105.0,101.0,100.0,13.4,1505.2,332.7,-0.7,1.8,2470.92,13.28,0.049,130.1
2022-06-12T05:19:03,42.805,6.029,0.071,-0.02,-0.004,103.0,102.0,100.0,13.3,1505.2,321.7,-0.7,1.8,2470.939,13.28,0.073,105.7
2022-06-12T05:22:03,42.805,6.029,0.029,-0.026,-0.02,102.0,103.0,100.0,13.4,1505.2,327.8,-0.7,1.8,2470.916,13.28,0.038,131.9
2022-06-12T05:25:03,42.805,6.029,0.026,-0.035,-0.044,103.0,103.0,100.0,13.4,1505.2,322.6,-0.8,1.8,2470.925,13.28,0.043,143.4
2022-06-12T05:28:03,42.805,6.029,0.044,-0.047,-0.026,103.0,103.0,100.0,13.4,1505.2,328.4,-0.8,1.8,2470.896,13.28,0.064,136.9
2022-06-12T05:31:03,42.805,6.029,0.042,-0.031,-0.046,103.0,102.0,101.0,13.4,1505.2,325.1,-0.8,1.8,2470.965,13.28,0.052,126.4
2022-06-12T05:34:03,42.805,6.029,0.031,-0.028,-0.034,103.0,101.0,100.0,13.3,1505.2,327.4,-0.8,1.8,2470.9,13.28,0.041,132.1
2022-06-12T05:37:03,42.805,6.029,0.057,-0.024,-0.014,101.0,102.0,101.0,13.4,1505.2,327.4,-0.8,1.8,2470.919,13.28,0.061,112.8
2022-06-12T05:40:03,42.805,6.029,0.047,-0.036,-0.054,103.0,102.0,100.0,13.4,1505.2,324.0,-0.8,1.8,2470.923,13.28,0.059,127.5
2022-06-12T05:43:03,42.805,6.029,0.03,-0.02,-0.048,102.0,102.0,101.0,13.4,1505.2,329.1,-0.8,1.9,2470.946,13.28,0.036,123.7
2022-06-12T05:46:03,42.805,6.029,0.026,-0.025,-0.028,102.0,103.0,100.0,13.4,1505.2,321.4,-0.7,1.8,2470.945,13.28,0.036,133.9
2022-06-12T05:49:03,42.805,6.029,0.025,-0.019,-0.026,104.0,103.0,100.0,13.4,1505.2,323.9,-0.8,1.8,2470.925,13.28,0.031,127.2
2022-06-12T05:52:03,42.805,6.029,0.049,-0.012,-0.05,103.0,103.0,100.0,13.4,1505.2,323.5,-0.8,1.8,2470.953,13.28,0.05,103.8
2022-06-12T05:55:03,42.805,6.029,0.039,-0.018,-0.003,104.0,102.0,100.0,13.4,1505.2,323.7,-0.7,1.8,2470.928,13.28,0.042,114.8
2022-06-12T05:58:03,42.805,6.029,0.032,-0.025,-0.043,103.0,101.0,101.0,13.4,1505.2,328.6,-0.8,1.8,2470.942,13.28,0.04,128.0
2022-06-12T06:04:03,42.805,6.029,0.049,-0.039,-0.042,103.0,102.0,101.0,13.4,1505.2,331.6,-0.7,1.8,2470.948,13.28,0.062,128.5
2022-06-12T06:07:03,42.805,6.029,0.039,-0.02,-0.003,103.0,103.0,100.0,13.4,1505.2,326.6,-0.8,1.8,2470.981,13.28,0.043,117.1
2022-06-12T06:10:03,42.805,6.029,0.04,-0.038,-0.02,102.0,102.0,101.0,13.4,1505.2,327.3,-0.7,1.8,2470.93,13.28,0.055,133.5
2022-06-12T06:13:03,42.805,6.029,0.053,-0.024,-0.03,104.0,102.0,101.0,13.4,1505.2,329.2,-0.8,1.8,2470.926,13.28,0.058,114.4
2022-06-12T06:16:03,42.805,6.029,0.027,-0.016,-0.017,104.0,102.0,101.0,13.3,1505.2,331.3,-0.8,1.8,2470.938,13.28,0.031,120.7
2022-06-12T06:19:03,42.805,6.029,0.045,-0.036,-0.03,104.0,102.0,100.0,13.4,1505.2,324.4,-0.8,1.8,2470.93,13.28,0.057,128.7
2022-06-12T06:22:03,42.805,6.029,0.04,-0.024,-0.012,103.0,102.0,100.0,13.3,1505.2,332.5,-0.7,1.8,2470.923,13.28,0.046,121.0
2022-06-12T06:25:03,42.805,6.029,0.06,-0.045,-0.027,104.0,103.0,99.0,13.3,1505.2,324.5,-0.7,1.8,2470.932,13.28,0.074,126.9
2022-06-12T06:28:03,42.805,6.029,0.036,-0.037,-0.02,103.0,103.0,100.0,13.4,1505.2,331.3,-0.7,1.8,2470.93,13.28,0.051,135.8
2022-06-12T06:31:03,42.805,6.029,0.04,-0.028,-0.026,103.0,102.0,101.0,13.4,1505.2,332.7,-0.8,1.8,2470.912,13.28,0.048,125.0
2022-06-12T06:34:03,42.805,6.029,0.035,-0.02,-0.021,103.0,102.0,102.0,13.4,1505.2,326.5,-0.8,1.8,2470.898,13.28,0.04,119.7
2022-06-12T06:37:03,42.805,6.029,0.063,-0.02,-0.023,104.0,102.0,100.0,13.4,1505.2,324.9,-0.8,1.8,2470.883,13.28,0.066,107.6
2022-06-12T06:40:03,42.805,6.029,0.06,-0.055,-0.02,103.0,101.0,102.0,13.4,1505.2,329.9,-0.8,1.8,2470.885,13.28,0.081,132.5
2022-06-12T06:43:03,42.805,6.029,0.035,-0.026,-0.045,103.0,102.0,101.0,13.4,1505.2,332.0,-0.7,1.8,2470.895,13.28,0.043,126.6
2022-06-12T06:46:03,42.805,6.029,0.024,0.011,-0.016,103.0,101.0,101.0,13.3,1505.2,328.9,-0.8,1.9,2470.922,13.28,0.026,65.4
2022-06-12T06:49:03,42.805,6.029,0.03,-0.041,-0.05,104.0,103.0,99.0,13.4,1505.2,321.6,-0.8,1.8,2470.911,13.28,0.05,143.8
2022-06-12T06:52:03,42.805,6.029,0.041,-0.024,-0.023,103.0,104.0,100.0,13.4,1505.2,326.7,-0.7,1.8,2470.905,13.28,0.047,120.3
2022-06-12T06:55:03,42.805,6.029,0.026,-0.011,-0.042,104.0,103.0,100.0,13.4,1505.2,324.0,-0.7,1.8,2470.931,13.28,0.028,112.9
2022-06-12T06:58:03,42.805,6.029,0.041,-0.03,-0.017,103.0,103.0,100.0,13.4,1505.2,328.6,-0.7,1.8,2470.887,13.28,0.05,126.2
2022-06-12T07:04:03,42.805,6.029,0.046,-0.02,-0.028,105.0,103.0,101.0,13.4,1505.2,327.7,-0.8,1.8,2470.925,13.28,0.05,113.5
2022-06-12T07:07:03,42.805,6.029,0.031,-0.025,-0.031,103.0,102.0,100.0,13.4,1505.2,321.8,-0.7,1.8,2470.94,13.28,0.039,128.9
2022-06-12T07:10:03,42.805,6.029,0.05,-0.036,-0.024,101.0,103.0,101.0,13.4,1505.2,323.3,-0.8,1.9,2470.92,13.28,0.061,125.8
2022-06-12T07:13:03,42.805,6.029,0.029,-0.037,-0.04,103.0,103.0,101.0,13.3,1505.2,331.6,-0.7,1.8,2470.899,13.28,0.047,141.9
2022-06-12T07:16:03,42.805,6.029,0.047,-0.042,-0.041,103.0,103.0,100.0,13.4,1505.2,328.8,-0.8,1.8,2470.898,13.28,0.063,131.8
2022-06-12T07:19:03,42.805,6.029,0.057,-0.016,-0.018,102.0,102.0,101.0,13.4,1505.2,326.1,-0.7,1.8,2470.913,13.28,0.059,105.7
2022-06-12T07:22:03,42.805,6.029,0.065,-0.032,-0.028,104.0,102.0,100.0,13.3,1505.2,323.4,-0.8,1.8,2470.922,13.28,0.072,116.2
2022-06-12T07:25:03,42.805,6.029,0.028,-0.033,-0.037,102.0,102.0,100.0,13.3,1505.2,329.2,-0.8,1.8,2470.905,13.28,0.043,139.7
2022-06-12T07:28:03,42.805,6.029,0.041,-0.027,-0.003,102.0,102.0,101.0,13.3,1505.2,325.6,-0.7,1.8,2470.889,13.28,0.049,123.4
2022-06-12T07:31:03,42.805,6.029,0.031,-0.018,0.008,104.0,101.0,100.0,13.4,1505.2,324.4,-0.8,1.8,2470.872,13.28,0.035,120.1
2022-06-12T07:34:03,42.805,6.029,0.023,-0.019,-0.018,104.0,103.0,101.0,13.4,1505.2,321.6,-0.7,1.8,2470.88,13.28,0.029,129.6
2022-06-12T07:37:03,42.805,6.029,0.024,-0.021,-0.035,102.0,103.0,100.0,13.3,1505.2,330.9,-0.8,1.8,2470.865,13.28,0.031,131.2
2022-06-12T07:40:03,42.805,6.029,0.033,-0.042,-0.038,103.0,103.0,101.0,13.4,1505.2,330.5,-0.8,1.9,2470.859,13.28,0.053,141.8
2022-06-12T07:43:03,42.805,6.029,0.037,-0.01,-0.025,102.0,103.0,100.0,13.4,1505.2,323.6,-0.7,1.8,2470.902,13.28,0.038,105.1
2022-06-12T07:46:03,42.805,6.029,0.041,-0.014,-0.004,101.0,102.0,101.0,13.4,1505.2,324.8,-0.8,1.8,2470.872,13.28,0.043,108.9
2022-06-12T07:49:03,42.805,6.029,0.056,-0.023,-0.018,103.0,101.0,100.0,13.4,1505.2,322.0,-0.8,1.8,2470.903,13.28,0.06,112.3
2022-06-12T07:52:03,42.805,6.029,0.032,-0.044,-0.056,103.0,104.0,99.0,13.4,1505.2,333.2,-0.8,1.8,2470.844,13.28,0.054,144.0
2022-06-12T07:55:03,42.805,6.029,0.065,-0.035,-0.026,101.0,104.0,102.0,13.3,1505.2,323.8,-0.8,1.8,2470.886,13.28,0.073,118.3
2022-06-12T07:58:03,42.805,6.029,0.032,-0.056,-0.057,103.0,104.0,100.0,13.4,1505.2,332.0,-0.7,1.8,2470.875,13.28,0.064,150.3
2022-06-12T08:04:03,42.805,6.029,0.034,-0.021,0.005,103.0,102.0,101.0,13.4,1505.2,330.1,-0.8,1.8,2470.917,13.28,0.039,121.7
2022-06-12T08:07:03,42.805,6.029,0.031,-0.026,-0.028,104.0,102.0,101.0,13.4,1505.2,329.9,-0.8,1.8,2470.906,13.28,0.04,130.0
2022-06-12T08:10:03,42.805,6.029,0.032,-0.054,-0.041,104.0,102.0,100.0,13.3,1505.2,332.3,-0.8,1.8,2470.863,13.28,0.062,149.3
2022-06-12T08:13:03,42.805,6.029,0.03,-0.042,-0.031,102.0,102.0,101.0,13.4,1505.2,333.2,-0.7,1.9,2470.863,13.28,0.051,144.5
2022-06-12T08:16:03,42.805,6.029,0.036,-0.019,-0.048,104.0,102.0,101.0,13.4,1505.2,324.5,-0.8,1.8,2470.852,13.28,0.04,117.8
2022-06-12T08:19:03,42.805,6.029,0.052,-0.041,-0.028,103.0,102.0,100.0,13.4,1505.2,322.1,-0.8,1.9,2470.839,13.28,0.066,128.3
2022-06-12T08:22:03,42.805,6.029,0.028,-0.018,-0.037,103.0,101.0,100.0,13.3,1505.2,325.7,-0.8,1.8,2470.852,13.28,0.033,122.7
2022-06-12T08:25:03,42.805,6.029,0.025,-0.017,-0.054,103.0,101.0,102.0,13.3,1505.2,323.4,-0.7,1.8,2470.858,13.28,0.03,124.2
2022-06-12T08:28:03,42.805,6.029,0.05,-0.039,-0.039,103.0,103.0,101.0,13.4,1505.2,324.8,-0.8,1.8,2470.838,13.28,0.063,128.0
2022-06-12T08:31:03,42.805,6.029,0.037,-0.032,-0.047,104.0,103.0,100.0,13.3,1505.2,322.7,-0.7,1.8,2470.809,13.28,0.048,130.9
2022-06-12T08:34:03,42.805,6.029,0.017,-0.031,-0.044,102.0,102.0,101.0,13.3,1505.2,329.3,-0.8,1.8,2470.841,13.28,0.035,151.3
2022-06-12T08:37:03,42.805,6.029,0.04,-0.016,-0.005,103.0,103.0,100.0,13.3,1505.2,321.5,-0.8,1.8,2470.862,13.28,0.043,111.8
2022-06-12T08:40:03,42.805,6.029,0.047,-0.035,-0.041,103.0,102.0,101.0,13.4,1505.2,320.0,-0.7,1.8,2470.848,13.28,0.058,126.7
2022-06-12T08:43:03,42.805,6.029,0.031,-0.024,-0.022,102.0,102.0,100.0,13.3,1505.2,332.7,-0.8,1.8,2470.821,13.28,0.039,127.7
2022-06-12T08:46:03,42.805,6.029,0.037,-0.05,-0.046,102.0,101.0,100.0,13.3,1505.2,329.9,-0.7,1.8,2470.816,13.28,0.062,143.5
2022-06-12T08:49:03,42.805,6.029,0.049,-0.036,-0.042,102.0,103.0,100.0,13.3,1505.2,329.7,-0.8,1.8,2470.834,13.28,0.06,126.3
2022-06-12T08:52:03,42.805,6.029,0.031,-0.019,-0.024,104.0,103.0,101.0,13.4,1505.2,330.6,-0.8,1.8,2470.804,13.28,0.036,121.5
2022-06-12T08:55:03,42.805,6.029,0.036,-0.041,-0.017,103.0,103.0,101.0,13.4,1505.2,325.4,-0.8,1.8,2470.783,13.28,0.054,138.7
2022-06-12T08:58:03,42.805,6.029,0.03,-0.024,-0.022,104.0,102.0,100.0,13.4,1505.2,320.3,-0.8,1.8,2470.85,13.28,0.038,128.7
2022-06-12T09:04:03,42.805,6.029,0.069,-0.031,-0.02,103.0,102.0,100.0,13.3,1505.2,327.7,-0.8,1.8,2470.873,13.28,0.075,114.2
2022-06-12T09:07:03,42.805,6.029,0.018,-0.042,-0.051,102.0,102.0,100.0,13.4,1505.2,333.2,-0.8,1.9,2470.864,13.28,0.045,156.8
2022-06-12T09:10:03,42.805,6.029,0.037,-0.026,-0.041,102.0,103.0,100.0,13.4,1505.2,328.3,-0.8,1.8,2470.874,13.28,0.045,125.1
2022-06-12T09:13:03,42.805,6.029,0.026,-0.032,-0.031,104.0,102.0,100.0,13.4,1505.2,326.6,-0.8,1.8,2470.856,13.28,0.041,140.9
2022-06-12T09:16:03,42.805,6.029,0.035,-0.033,-0.041,103.0,102.0,101.0,13.3,1505.2,330.3,-0.8,1.8,2470.818,13.28,0.048,133.3
2022-06-12T09:19:03,42.805,6.029,0.027,-0.028,-0.039,103.0,102.0,100.0,13.4,1505.2,329.1,-0.8,1.8,2470.785,13.28,0.038,136.0
2022-06-12T09:22:03,42.805,6.029,0.032,-0.025,0.007,103.0,103.0,100.0,13.4,1505.2,329.1,-0.7,1.8,2470.787,13.28,0.04,128.0
2022-06-12T09:25:03,42.805,6.029,0.048,-0.038,-0.025,103.0,102.0,100.0,13.3,1505.2,322.3,-0.8,1.8,2470.82,13.28,0.061,128.4
2022-06-12T09:28:03,42.805,6.029,0.033,-0.038,-0.04,105.0,103.0,100.0,13.3,1505.2,329.6,-0.7,1.8,2470.794,13.28,0.05,139.0
2022-06-12T09:31:03,42.805,6.029,0.022,-0.024,-0.014,104.0,102.0,100.0,13.3,1505.2,332.1,-0.7,1.8,2470.783,13.28,0.032,137.5
2022-06-12T09:34:03,42.805,6.029,0.011,-0.03,-0.04,104.0,102.0,100.0,13.4,1505.2,324.8,-0.8,1.8,2470.811,13.28,0.031,159.9
2022-06-12T09:37:03,42.805,6.029,0.054,-0.025,-0.021,102.0,103.0,101.0,13.4,1505.2,328.6,-0.8,1.8,2470.78,13.28,0.059,114.8
2022-06-12T09:40:03,42.805,6.029,0.013,-0.024,-0.038,103.0,102.0,101.0,13.3,1505.2,326.8,-0.8,1.8,2470.75,13.28,0.027,151.6
2022-06-12T09:43:03,42.805,6.029,0.034,-0.019,-0.025,101.0,103.0,101.0,13.4,1505.2,323.0,-0.8,1.8,2470.744,13.28,0.038,119.2
2022-06-12T09:46:03,42.805,6.029,0.052,-0.031,-0.016,104.0,102.0,100.0,13.4,1505.2,328.0,-0.7,1.8,2470.839,13.28,0.06,120.8
2022-06-12T09:49:03,42.805,6.029,0.049,-0.009,-0.02,104.0,102.0,101.0,13.3,1505.2,321.1,-0.8,1.8,2470.789,13.28,0.049,100.4
2022-06-12T09:52:03,42.805,6.029,0.043,-0.036,-0.036,102.0,106.0,100.0,13.4,1505.2,329.6,-0.8,1.8,2470.796,13.28,0.056,129.9